CT1ETE Weather Reports


time (UTC)temp
C
wind
direction
speed
KPH
gust
KPH
rain 1hr
cm
rain 24hr
cm
rain mn
cm
humidity
%
barometer
mb
20260902213020 25 153 3.2 3.2 0.00 0.00 0.00 57 1021.2
20260902211514 25 153 3.2 4.8 0.00 0.00 0.00 59 1021.2
20260902210012 25 153 3.2 8.0 0.00 0.00 0.00 59 1021.3
20260902204512 25 154 3.2 4.8 0.00 0.00 0.00 60 1021.2
20260902203707 24 154 4.8 8.0 0.00 0.00 0.00 62 1021.1
20260902201510 24 227 3.2 4.8 0.00 0.00 0.00 63 1021.2
20260902200007 25 227 1.6 3.2 0.00 0.00 0.00 63 1021.0
20260902194506 25 227 1.6 3.2 0.00 0.00 0.00 62 1020.8
20260902193004 25 227 4.8 8.0 0.00 0.00 0.00 61 1020.7
20260902191504 26 227 6.4 12.9 0.00 0.00 0.00 60 1020.6
20260902190004 27 236 9.7 16.1 0.00 0.00 0.00 57 1020.5
20260902184502 28 246 8.0 12.9 0.00 0.00 0.00 53 1020.5
20260902183002 28 240 8.0 14.5 0.00 0.00 0.00 49 1020.6
20260902181502 29 266 9.7 14.5 0.00 0.00 0.00 49 1020.6
20260902180000 30 247 9.7 16.1 0.00 0.00 0.00 49 1020.6
20260902174500 30 277 11.3 17.7 0.00 0.00 0.00 48 1020.4
20260902172959 30 267 9.7 16.1 0.00 0.00 0.00 47 1020.4
20260902171459 31 238 9.7 17.7 0.00 0.00 0.00 45 1020.4
20260902165959 31 258 8.0 16.1 0.00 0.00 0.00 42 1020.4
20260902164458 31 284 9.7 17.7 0.00 0.00 0.00 41 1020.5
20260902162958 31 244 11.3 17.7 0.00 0.00 0.00 39 1020.5
20260902162157 32 278 8.0 16.1 0.00 0.00 0.00 39 1020.6
20260902155957 31 322 11.3 19.3 0.00 0.00 0.00 40 1020.6
20260902154457 31 269 9.7 20.9 0.00 0.00 0.00 41 1020.6
20260902153658 31 262 11.3 22.5 0.00 0.00 0.00 41 1020.7
20260902151455 31 254 9.7 17.7 0.00 0.00 0.00 40 1020.7
20260902145953 31 254 9.7 17.7 0.00 0.00 0.00 42 1020.8
20260902144452 31 294 8.0 16.1 0.00 0.00 0.00 43 1020.8
20260902142948 31 272 8.0 16.1 0.00 0.00 0.00 44 1020.8
20260902141447 31 269 9.7 14.5 0.00 0.00 0.00 45 1020.9
20260902135947 30 250 8.0 14.5 0.00 0.00 0.00 49 1021.0
20260902134448 30 295 8.0 17.7 0.00 0.00 0.00 48 1021.1
20260902132947 30 250 8.0 16.1 0.00 0.00 0.00 49 1021.2
20260902131453 30 236 6.4 14.5 0.00 0.00 0.00 51 1021.3
20260902125941 29 234 8.0 16.1 0.00 0.00 0.00 53 1021.3
20260902124439 28 204 6.4 17.7 0.00 0.00 0.00 53 1021.4
20260902122939 28 238 6.4 14.5 0.00 0.00 0.00 54 1021.6
20260902121439 28 240 8.0 12.9 0.00 0.00 0.00 55 1021.7
20260902120635 27 270 8.0 14.5 0.00 0.00 0.00 56 1021.8
20260902114439 27 226 8.0 14.5 0.00 0.00 0.00 56 1022.0
20260902112939 27 229 6.4 12.9 0.00 0.00 0.00 57 1022.1
20260902111439 26 247 6.4 11.3 0.00 0.00 0.00 60 1022.1
20260902110643 26 240 4.8 11.3 0.00 0.00 0.00 60 1022.2
20260902104439 25 245 3.2 11.3 0.00 0.00 0.00 61 1022.2
20260902102937 25 238 3.2 8.0 0.00 0.00 0.00 64 1022.2
20260902101435 25 248 3.2 6.4 0.00 0.00 0.00 63 1022.2
20260902095934 23 246 3.2 6.4 0.00 0.00 0.00 67 1022.2
20260902095143 23 244 4.8 8.0 0.00 0.00 0.00 66 1022.2
20260902092935 23 248 4.8 8.0 0.00 0.00 0.00 67 1022.2
20260902091434 23 194 3.2 6.4 0.00 0.00 0.00 69 1021.9
20260902085934 22 108 1.6 4.8 0.00 0.00 0.00 70 1021.7
20260902084435 22 109 1.6 3.2 0.00 0.00 0.00 71 1021.6
20260902082934 22 109 0.0 3.2 0.00 0.00 0.00 70 1021.6
20260902081434 21 109 1.6 3.2 0.00 0.00 0.00 72 1021.4
20260902075934 20 109 0.0 3.2 0.00 0.00 0.00 75 1021.3
20260902074434 20 109 0.0 4.8 0.00 0.00 0.00 77 1021.3
20260902072934 19 109 3.2 4.8 0.00 0.00 0.00 80 1021.2
20260902071435 18 109 0.0 4.8 0.00 0.00 0.00 81 1021.1
20260902065933 17 109 0.0 3.2 0.00 0.00 0.00 83 1020.9
20260902064432 17 109 3.2 4.8 0.00 0.00 0.00 83 1020.7
20260902062932 17 109 3.2 6.4 0.00 0.00 0.00 84 1020.6
20260902061433 16 109 4.8 6.4 0.00 0.00 0.00 84 1020.6
20260902055933 16 109 3.2 4.8 0.00 0.00 0.00 84 1020.6
20260902054431 17 109 0.0 3.2 0.00 0.00 0.00 83 1020.5
20260902052928 17 109 0.0 0.0 0.00 0.00 0.00 82 1020.4
20260902051427 17 109 0.0 3.2 0.00 0.00 0.00 82 1020.3
20260902050620 17 109 0.0 3.2 0.00 0.00 0.00 82 1020.4
20260902044424 17 109 3.2 4.8 0.00 0.00 0.00 83 1020.3
20260902042923 17 109 3.2 6.4 0.00 0.00 0.00 83 1020.1
20260902041420 17 109 1.6 3.2 0.00 0.00 0.00 83 1020.2
20260902035918 17 109 1.6 3.2 0.00 0.00 0.00 83 1020.3
20260902034416 17 109 1.6 3.2 0.00 0.00 0.00 83 1020.2
20260902033615 17 109 0.0 0.0 0.00 0.00 0.00 82 1020.2
20260902032816 17 109 0.0 4.8 0.00 0.00 0.00 82 1020.1
20260902025916 17 109 3.2 6.4 0.00 0.00 0.00 82 1020.0
20260902024416 17 109 3.2 6.4 0.00 0.00 0.00 83 1019.9
20260902022916 17 109 4.8 9.7 0.00 0.00 0.00 83 1020.1
20260902021414 17 108 3.2 9.7 0.00 0.00 0.00 82 1020.3
20260902015914 17 109 4.8 6.4 0.00 0.00 0.00 83 1020.4
20260902014414 17 109 4.8 6.4 0.00 0.00 0.00 83 1020.5
20260902012914 17 109 6.4 9.7 0.00 0.00 0.00 82 1020.5
20260902011412 17 109 6.4 11.3 0.00 0.00 0.00 83 1020.7
20260902005910 17 184 1.6 4.8 0.00 0.00 0.00 83 1020.8
20260902005104 17 184 3.2 4.8 0.00 0.00 0.00 82 1020.9
20260902002910 17 182 1.6 4.8 0.00 0.00 0.00 82 1020.9
20260902001408 17 224 1.6 4.8 0.00 0.00 0.00 82 1020.9
20260901235908 17 224 3.2 4.8 0.00 0.00 0.00 82 1020.9
20260901235824 17 224 1.6 3.2 0.00 0.00 0.00 82 1020.9
20260901232904 17 224 0.0 3.2 0.00 0.00 0.00 82 1020.9
20260901231404 18 224 1.6 3.2 0.00 0.00 0.00 81 1020.7
20260901225904 18 224 0.0 3.2 0.00 0.00 0.00 80 1020.6
20260901224402 18 224 3.2 6.4 0.00 0.00 0.00 80 1020.7
20260901222900 18 225 0.0 3.2 0.00 0.00 0.00 80 1020.7
20260901221400 18 225 1.6 3.2 0.00 0.00 0.00 79 1020.8
20260901215900 18 225 1.6 4.8 0.00 0.00 0.00 78 1020.7
20260901214358 18 225 1.6 4.8 0.00 0.00 0.00 77 1020.7